STARLINK-1526, 46029

Orbit data source: Space-Track

STARLINK-1526, 46029 is a payload satellite owned by SpaceX/Seattle (US) in LEO that was launched on Fri, 07 Aug 2020 UTC via an FALCON 9 launch vehicle from the Air Force Eastern Test Range (AFETR). Payloads include a variety of satellites, spacecraft, and rockets equipped with specific instruments for various scientific and technological missions. These include communications satellites like Starlink; space stations such as the ISS; scientific satellites like the Hubble; Earth observation satellites from companies like Planet Labs, Umbra, and HawkEye 360; GPS; miniature CubeSats for education and research; and military/defense satellites.

Loading next visibility...
STARLINK-1526 details
Identifier
46029, 2020-055C
Orbit
LEO
Last TLE update10 hours ago
Origin
Flag of USSpaceX/Seattle (US)
ManufacturerSpaceX/Seattle
MissionOperational Commercial Communications
Bus & MotorSTARLINK, Unknown motor
Mass260 kg wet, ~248 kg dry
Launch date (UTC)
2020-08-07 (4 years ago)
Launch vehicle
FALCON 9
Launch site
Air Force Eastern Test Range (AFETR)
Object type
Payload
Rocket body
Debris
Shape & HBRBox + 1 Pan, 8.86 m
Radar Cross Section13.562 m², Large (>1 m²)

Expand to show TLE details & history

TLE from 10 hours ago
0 STARLINK-1526
1 46029U 20055C   24346.48739869  .00010934  00000-0  75244-3 0  9998
2 46029  53.0562   1.1256 0001770  93.9957 266.1235 15.06366839240587
Epoch: 2024-12-11T11:41Z
Definitive object data (Epoch: 2024-12-11T11:41:51.246Z)
Latitude0.00001°
Longitude104.98071°
Altitude548.276 km
Speed7.589 km/s
True Right ascension00h 04m 30s
True Declination0° 00' 00"
Sunlit
Object was in daylight at TLE epoch
Visualization TLE readout
Latitude-5.56939°
Longitude-72.77902°
Altitude549.087 km
Speed7.588 km/s
Apparent Right ascension10h 41m 41s
Apparent Declination-24° 24' 16"
Sunlit
Object is in daylight
Visualization observer readout
Local Sidereal Time20:28:36
Azimuth288.961° WNW
Elevation-58.111°
Doppler factor1
Orbital elements
Apogee altitude548.809 km
Perigee altitude546.358 km
Semi-major axis6,925.721 km
Eccentricity0.000177
Inclination53.0562°
RAAN1.1256°
Arg. of periapsis93.9957°
True anomaly266.10326°
Mean anomaly266.1235°
Eccentric anomaly266.11338°
Mean motion3.7657 °/min
BSTAR0.00075244
Orbital period95.6 mins
Loading maneuver chart data...
Loading historical data...
Loading historical data...
Loading historical data...
Loading historical data...
Loading historical data...
Loading historical data...
Loading historical data...

STARLINK-1526 Visibility forecast

Observer location: undefined°, undefined

Span
Click to sort rows by Start time (UTC) header in descending order
Start Az.
Max El. time (UTC)
Max El. Az.
Max El.
End time (UTC)
End Az.
7 mins2024-12-12 03:47:38.851Z220.173° SW2024-12-12 03:50:38.851Z172.272° S42.883°2024-12-12 03:54:38.851Z54.38° ENE
5 mins2024-12-12 05:28:38.851Z293.997° NW2024-12-12 05:30:38.851Z332.623° NNW21.903°2024-12-12 05:33:38.851Z26.361° NE
4 mins2024-12-12 08:50:38.851Z348.056° N2024-12-12 08:52:38.851Z24.615° NE17.757°2024-12-12 08:54:38.851Z57.723° ENE
6 mins2024-12-12 10:29:38.851Z316.228° NNW2024-12-12 10:32:38.851Z59.964° ENE43.113°2024-12-12 10:35:38.851Z120.964° SE
|